[[{"header":{"parameterUnit":"m.s-1","parameterCategory":1,"la1":30.2991,"la2":30.254,"lo1":-89.0895,"lo2":-89.0444,"dy":0.0017,"dx":0.0017,"nx":28,"ny":28,"refTime":"2025-07-19T21:00:00:Z","depth":0,"parameterNumber":2,"parameterNumberName":"U-component_of_WINDS"},"data":[0,0,0,0,0,0,0,0,0,0,0,0,0,0,0,0,0,0,0,0,0,0,0,0,0,0,0,0,0,0,0,0,0,0,0,0,0,0,0,0,0,0,0,0,0,0,0,0,0,0,0,0,0,0,0,0,0,0,1.2263,1.2264,0,1.2412,1.2413,1.2415,1.2465,1.2464,1.2463,1.2463,1.2615,1.262,1.2624,0,0,0,0,0,0,0,0,0,0,0,0,0,1.2019,1.2023,1.2262,1.2264,1.2266,1.2411,1.2413,1.2416,1.2465,1.2464,1.2463,1.2462,1.2614,1.2619,1.2625,0,0,0,0,0,0,0,0,0,0,0,0,0,1.2142,1.2025,1.2262,1.2308,1.2314,1.2411,1.2414,1.2416,1.2465,1.2464,1.2463,1.2462,1.2612,1.2618,1.2625,1.2687,0,0,1.2647,1.265,0,0,0,0,0,0,0,0,1.2135,1.2151,1.23,1.2305,1.2312,1.2419,1.2384,1.2507,1.2465,1.2408,1.2463,1.2462,1.255,1.2562,1.2592,1.2694,1.2701,1.2647,1.2651,1.2654,1.2656,0,0,0,0,0,0,0,1.2126,1.2145,1.2321,1.2302,1.2309,1.2321,1.2338,1.2407,1.2482,1.2412,1.2416,1.2433,1.2554,1.2586,1.2596,1.2703,1.2647,1.2653,1.2658,1.266,1.2863,1.2864,0,0,0,0,0,0,1.211,1.2137,1.2317,1.2326,1.2219,1.2326,1.2345,1.2385,1.2482,1.2496,1.2434,1.2435,1.2574,1.2588,1.2602,1.2681,1.2654,1.2661,1.2665,1.2862,1.2863,1.2865,0,0,0,0,0,0,1.2105,1.2126,1.2311,1.2233,1.2257,1.2331,1.2377,1.2389,1.2421,1.2498,1.2512,1.2453,1.2574,1.2592,1.2666,1.2687,1.2664,1.267,1.286,1.2862,1.2864,1.2838,0,0,0,0,0,0,1.2098,1.2124,1.2148,1.2233,1.2261,1.2372,1.2378,1.2392,1.2433,1.2436,1.252,1.2533,1.2575,1.2655,1.2672,1.2696,1.2676,1.2859,1.2861,1.2863,1.2838,1.2839,1.284,0,0,0,0,0,1.2089,1.2135,1.2149,1.2171,1.2294,1.2373,1.2389,1.2437,1.2434,1.2459,1.2509,1.253,1.2681,1.2662,1.2682,1.2708,1.2858,1.2861,1.2863,1.2837,1.2839,1.284,0,0,0,0,0,0,1.205,1.2147,1.2164,1.2239,1.2297,1.2381,1.2415,1.2437,1.2498,1.2498,1.2554,1.2573,1.2642,1.2682,1.2659,1.2773,1.2771,1.2777,1.2744,1.2746,1.2747,1.2736,1.2682,0,0,0,0,0,1.205,1.2108,1.2189,1.2247,1.2276,1.234,1.2376,1.2408,1.2471,1.2496,1.2551,1.2611,1.2672,1.2711,1.2772,1.2844,1.2863,1.2871,1.2872,1.2873,1.2878,1.2919,1.2924,1.2874,1.2874,1.2874,0,0,1.2052,1.2111,1.2144,1.2241,1.229,1.2347,1.236,1.2421,1.2464,1.2505,1.2578,1.262,1.2691,1.2764,1.2799,1.28,1.2896,1.2877,1.2877,1.2882,1.2922,1.2927,1.2931,1.2875,1.2875,1.2875,0,0,1.2083,1.2134,1.2188,1.2237,1.2311,1.2354,1.2367,1.2447,1.2477,1.2551,1.2583,1.2635,1.2739,1.2788,1.2827,1.2876,1.2898,1.2894,1.2901,1.294,1.2944,1.2948,1.2965,1.2971,1.2899,1.2899,1.2899,0,1.2075,1.2163,1.2213,1.2272,1.2313,1.2353,1.2408,1.2453,1.2543,1.2571,1.2571,1.2702,1.2753,1.2837,1.2849,1.2879,1.2895,1.2885,1.2939,1.2944,1.2948,1.2965,1.2972,1.2898,1.2899,1.2899,1.2899,0,1.2149,1.2209,1.2244,1.233,1.2376,1.2432,1.249,1.253,1.2558,1.26,1.2674,1.2736,1.281,1.2832,1.286,1.2921,1.2919,1.2928,1.2927,1.2951,1.2968,1.2975,1.2897,1.2897,1.2898,1.2898,0,0,1.216,1.2273,1.2285,1.2325,1.2409,1.2457,1.2515,1.2587,1.262,1.2681,1.2731,1.2818,1.2827,1.2871,1.2904,1.2938,1.2973,1.2943,1.2946,1.2946,1.3043,1.3036,1.3042,1.2987,1.2989,1.299,1.3037,0,1.2202,1.2308,1.2355,1.2439,1.2495,1.2534,1.2585,1.2642,1.2683,1.2736,1.2781,1.2842,1.285,1.2876,1.2912,1.2961,1.2993,1.2958,1.3034,1.3036,1.3015,1.3051,1.3044,1.3086,1.3044,1.3046,1.3046,0,1.2265,1.2326,1.2417,1.2495,1.252,1.2565,1.2634,1.2685,1.2751,1.2778,1.2826,1.2858,1.292,1.2914,1.3001,1.2976,1.301,1.3038,1.3041,1.305,1.3042,1.3061,1.31,1.3106,1.3057,1.3057,1.3056,0,1.2264,1.2369,1.2437,1.2469,1.2562,1.2592,1.2632,1.2697,1.2737,1.2798,1.2824,1.2891,1.2928,1.2979,1.3028,1.302,1.3109,1.3108,1.3133,1.3132,1.315,1.3149,1.3195,1.3172,1.3172,1.3172,1.3172,0,1.2306,1.236,1.2437,1.2479,1.254,1.2592,1.2651,1.2694,1.2751,1.2801,1.2839,1.2885,1.2946,1.3,1.3038,1.3104,1.312,1.3144,1.3153,1.314,1.3137,1.3163,1.3161,1.3174,1.3173,1.3173,1.3173,0,1.2315,1.2369,1.2445,1.2527,1.2549,1.259,1.2659,1.2701,1.2743,1.2806,1.2824,1.2891,1.2956,1.301,1.3095,1.3121,1.3189,1.32,1.3167,1.3172,1.3194,1.3191,1.3259,1.327,1.3239,1.324,1.324,0,1.2338,1.2381,1.2467,1.2503,1.2543,1.2601,1.2642,1.2696,1.2737,1.2815,1.2846,1.2914,1.2972,1.3074,1.313,1.3195,1.3208,1.3228,1.3219,1.3204,1.3209,1.3205,1.321,1.3228,1.3228,1.3228,1.3228,0,1.2374,1.2398,1.2457,1.2525,1.2573,1.2629,1.2686,1.2713,1.2777,1.2821,1.2889,1.2933,1.302,1.3087,1.3158,1.3199,1.3224,1.3231,1.324,1.3227,1.3206,1.3218,1.3169,1.3229,1.3229,1.3229,1.3229,1.3229,1.2391,1.243,1.2496,1.256,1.2609,1.2661,1.2704,1.2752,1.2809,1.2884,1.2912,1.2981,1.3045,1.3143,1.3184,1.3239,1.3242,1.3255,1.3259,1.3261,1.3259,1.3198,1.3252,1.3252,1.3252,1.3252,1.3252,0,1.2428,1.2472,1.2531,1.2609,1.2659,1.2679,1.2742,1.2783,1.2843,1.2901,1.2956,1.3033,1.3098,1.3159,1.3227,1.3259,1.3272,1.3275,1.3273,1.3282,1.3253,1.3238,1.3263,1.3263,1.3263,1.3263,1.3263,1.3263,1.2453,1.252,1.2553,1.2644,1.2689,1.2757,1.2791,1.2839,1.2886,1.297,1.3024,1.3064,1.3123,1.3195,1.3256,1.3272,1.3295,1.3295,1.3314,1.3286,1.3284,1.3282,1.3268,1.3299,1.3299,1.3338,1.3338,1.3339]},{"header":{"parameterUnit":"m.s-1","parameterCategory":1,"la1":30.2991,"la2":30.254,"lo1":-89.0895,"lo2":-89.0444,"dy":0.0017,"dx":0.0017,"nx":28,"ny":28,"refTime":"2025-07-19T21:00:00:Z","depth":0,"parameterNumber":3,"parameterNumberName":"V-component_of_WINDS"},"data":[0,0,0,0,0,0,0,0,0,0,0,0,0,0,0,0,0,0,0,0,0,0,0,0,0,0,0,0,0,0,0,0,0,0,0,0,0,0,0,0,0,0,0,0,0,0,0,0,0,0,0,0,0,0,0,0,0,0,5.1278,5.1278,0,5.1255,5.1254,5.1254,5.1182,5.118,5.1178,5.1177,5.1154,5.1155,5.1156,0,0,0,0,0,0,0,0,0,0,0,0,0,5.1264,5.1265,5.1278,5.1278,5.1278,5.1255,5.1254,5.1254,5.1182,5.118,5.1178,5.1176,5.1154,5.1155,5.1156,0,0,0,0,0,0,0,0,0,0,0,0,0,5.1258,5.1265,5.1278,5.1239,5.1235,5.1255,5.1254,5.1254,5.1182,5.118,5.1178,5.1175,5.1154,5.1155,5.1156,5.1213,0,0,5.116,5.1161,0,0,0,0,0,0,0,0,5.1259,5.1259,5.1245,5.1242,5.1238,5.1219,5.1241,5.124,5.1183,5.1203,5.1177,5.1174,5.1178,5.1177,5.1178,5.1211,5.121,5.1161,5.1161,5.1162,5.1162,0,0,0,0,0,0,0,5.1259,5.1259,5.1269,5.1245,5.124,5.1223,5.122,5.124,5.1204,5.1201,5.1195,5.1193,5.1175,5.1177,5.1177,5.121,5.116,5.1162,5.1162,5.1163,5.129,5.1292,0,0,0,0,0,0,5.1265,5.126,5.127,5.1268,5.1242,5.1226,5.1222,5.1227,5.1203,5.1198,5.1195,5.119,5.1176,5.1175,5.1176,5.124,5.1162,5.1163,5.1164,5.1287,5.129,5.1293,0,0,0,0,0,0,5.1265,5.1266,5.1271,5.1263,5.1262,5.1228,5.1235,5.1228,5.1229,5.12,5.1193,5.1203,5.1174,5.1174,5.1204,5.1238,5.1164,5.1165,5.1284,5.1288,5.1291,5.137,0,0,0,0,0,0,5.1265,5.1267,5.1287,5.1264,5.1263,5.1299,5.1237,5.1229,5.1232,5.1224,5.1205,5.12,5.1172,5.1202,5.1205,5.1239,5.1166,5.1281,5.1286,5.129,5.1364,5.1376,5.1386,0,0,0,0,0,5.1264,5.131,5.1289,5.129,5.1287,5.1301,5.13,5.1267,5.1235,5.1255,5.1236,5.12,5.1234,5.1206,5.1209,5.1243,5.1278,5.1284,5.129,5.1359,5.1373,5.1386,0,0,0,0,0,0,5.1339,5.1307,5.1282,5.1322,5.1315,5.1289,5.1313,5.1283,5.1285,5.1279,5.1237,5.1234,5.127,5.1259,5.1229,5.1297,5.125,5.1257,5.1302,5.1315,5.1326,5.1328,5.1167,0,0,0,0,0,5.136,5.1373,5.1344,5.1382,5.138,5.1348,5.1352,5.1327,5.1318,5.1315,5.1298,5.1292,5.1301,5.1308,5.1314,5.1362,5.1357,5.1387,5.1398,5.1408,5.1414,5.1439,5.1452,5.1312,5.1312,5.1312,0,0,5.1404,5.1388,5.1398,5.1397,5.1388,5.1403,5.1345,5.1364,5.1375,5.1318,5.1345,5.1333,5.1323,5.1362,5.1379,5.1355,5.1451,5.1415,5.1422,5.1423,5.1446,5.1459,5.1471,5.1316,5.1315,5.1314,0,0,5.1491,5.148,5.151,5.1503,5.1491,5.1469,5.1477,5.1456,5.1445,5.1472,5.143,5.1443,5.1459,5.1454,5.1454,5.154,5.1507,5.1544,5.1601,5.1626,5.1637,5.1647,5.1678,5.1689,5.155,5.155,5.155,0,5.1547,5.1567,5.153,5.1551,5.1552,5.1501,5.1532,5.1527,5.1518,5.152,5.1493,5.1513,5.1503,5.1541,5.1562,5.1563,5.1571,5.1545,5.1638,5.1648,5.1656,5.1685,5.1697,5.1555,5.1554,5.1554,5.1553,0,5.1636,5.1651,5.1678,5.167,5.1674,5.17,5.1668,5.1676,5.1651,5.1633,5.1661,5.1647,5.165,5.1658,5.1633,5.1692,5.1678,5.1646,5.1598,5.1674,5.1701,5.1712,5.1561,5.1559,5.1558,5.1557,0,0,5.1769,5.1741,5.1751,5.1747,5.1731,5.1742,5.1766,5.1769,5.1778,5.1774,5.1793,5.1809,5.1779,5.1779,5.1753,5.1776,5.1846,5.174,5.1739,5.176,5.191,5.1935,5.1948,5.1824,5.1826,5.1828,5.1911,0,5.1851,5.189,5.1858,5.1904,5.1917,5.187,5.1891,5.1884,5.1868,5.1878,5.186,5.1872,5.1831,5.1831,5.1851,5.1833,5.1875,5.1826,5.1843,5.1844,5.1846,5.1962,5.1988,5.2067,5.1921,5.1923,5.1924,0,5.1952,5.1953,5.2,5.1981,5.1985,5.2005,5.2005,5.2015,5.2006,5.1993,5.1993,5.1963,5.1986,5.194,5.1972,5.194,5.1945,5.1937,5.1939,5.1939,5.1888,5.1965,5.2092,5.2104,5.1941,5.1939,5.1938,0,5.2045,5.2057,5.2086,5.2085,5.2063,5.2078,5.207,5.2059,5.2063,5.2064,5.2066,5.207,5.2072,5.2076,5.2048,5.2017,5.2084,5.2035,5.2074,5.2075,5.209,5.2089,5.2219,5.2093,5.2093,5.2093,5.2093,0,5.214,5.2171,5.2128,5.2146,5.2179,5.2142,5.2177,5.2164,5.2154,5.217,5.2129,5.2145,5.2106,5.2118,5.2096,5.2126,5.2127,5.2118,5.2112,5.2121,5.2123,5.2124,5.2117,5.2096,5.2095,5.2095,5.2094,0,5.2248,5.2221,5.225,5.2227,5.2223,5.2248,5.2229,5.2246,5.2227,5.2247,5.225,5.2221,5.2233,5.2205,5.2213,5.2198,5.2242,5.2227,5.2245,5.224,5.228,5.2277,5.2415,5.2431,5.2296,5.2297,5.2298,0,5.2311,5.2333,5.2313,5.232,5.2315,5.2327,5.2331,5.2296,5.2302,5.2294,5.2312,5.232,5.2325,5.2347,5.2327,5.2333,5.2318,5.2366,5.2319,5.2328,5.2319,5.2318,5.232,5.2376,5.2377,5.2379,5.238,0,5.2425,5.241,5.2417,5.242,5.2425,5.2426,5.2423,5.2432,5.2395,5.2404,5.2415,5.2419,5.2428,5.2437,5.2439,5.2431,5.24,5.2395,5.2404,5.2414,5.2424,5.2419,5.2271,5.2392,5.2391,5.239,5.2389,5.2389,5.2512,5.253,5.2519,5.2528,5.2523,5.2522,5.2536,5.2519,5.2528,5.2532,5.2511,5.2528,5.2519,5.2518,5.2514,5.2527,5.2505,5.2519,5.2522,5.2526,5.2532,5.2422,5.2527,5.2527,5.2526,5.2526,5.2526,0,5.2624,5.2615,5.2624,5.2621,5.2629,5.2599,5.2595,5.2603,5.2618,5.2613,5.2618,5.2632,5.2641,5.2622,5.2629,5.2643,5.2628,5.2645,5.2644,5.2643,5.2551,5.2543,5.2657,5.2657,5.2657,5.2657,5.2657,5.2657,5.2683,5.2712,5.2696,5.2722,5.2713,5.2728,5.2728,5.2728,5.2723,5.274,5.2747,5.2735,5.2724,5.273,5.2737,5.2731,5.2735,5.2758,5.2747,5.2662,5.2649,5.2637,5.2629,5.2759,5.2759,5.2837,5.2838,5.2839]}]]